This is the latest recevied weather packets stored in our database for station/object N2WH. If no packets are shown the sender has not sent any weather packets the latest 10 day(s).
| Time | Temp. | Humidity | Pressure | Rain* | Wind** | Luminosity | Snow |
|---|---|---|---|---|---|---|---|
| 1777477392 | 16.11° C | 53% | 1015.9 hPa | 0 mm | - | 262 W/m² | - |
| 1777477089 | 16.11° C | 52% | 1015.7 hPa | 0 mm | - | 263 W/m² | - |
| 1777476786 | 15.56° C | 53% | 1015.8 hPa | 0 mm | - | 331 W/m² | - |
| 1777476483 | 15.56° C | 55% | 1015.8 hPa | 0 mm | - | 196 W/m² | - |
| 1777476179 | 15.56° C | 55% | 1015.6 hPa | 0 mm | - | 197 W/m² | - |
| 1777475875 | 15° C | 54% | 1016 hPa | 0 mm | - | 136 W/m² | - |
| 1777475571 | 15° C | 54% | 1015.7 hPa | 0 mm | - | 119 W/m² | - |
| 1777475268 | 15° C | 53% | 1015.6 hPa | 0 mm | - | 95 W/m² | - |
| 1777474963 | 15° C | 53% | 1015.9 hPa | 0 mm | - | 135 W/m² | - |
| 1777474659 | 15.56° C | 53% | 1016 hPa | 0 mm | - | 122 W/m² | - |
| 1777474356 | 15° C | 54% | 1015.8 hPa | 0 mm | - | 154 W/m² | - |
| 1777474052 | 15° C | 52% | 1015.8 hPa | 0 mm | - | 164 W/m² | - |
| 1777473751 | 15.56° C | 53% | 1016.2 hPa | 0 mm | - | 119 W/m² | - |
| 1777473447 | 15.56° C | 53% | 1016.1 hPa | 0 mm | - | 217 W/m² | - |
| 1777473143 | 15.56° C | 54% | 1015.7 hPa | 0 mm | - | 249 W/m² | - |
| 1777472840 | 16.11° C | 53% | 1015.8 hPa | 0 mm | - | 363 W/m² | - |
| 1777472536 | 15.56° C | 53% | 1015.7 hPa | 0 mm | - | 312 W/m² | - |
| 1777472233 | 15.56° C | 52% | 1015.7 hPa | 0 mm | - | 373 W/m² | - |
| 1777471929 | 15.56° C | 52% | 1015.7 hPa | 0 mm | - | 296 W/m² | - |
| 1777471626 | 15° C | 54% | 1016 hPa | 0 mm | - | 297 W/m² | - |
| 1777471322 | 15° C | 52% | 1016 hPa | 0 mm | - | 261 W/m² | - |
| 1777471019 | 16.11° C | 52% | 1016 hPa | 0 mm | - | 509 W/m² | - |
| 1777470715 | 15° C | 52% | 1016.2 hPa | 0 mm | - | 454 W/m² | - |
| 1777470412 | 15° C | 55% | 1016.2 hPa | 0 mm | - | 468 W/m² | - |
| 1777470109 | 14.44° C | 53% | 1016 hPa | 0 mm | - | 417 W/m² | - |
* Rain latest hour (hover to see other rain measurements)
** Current wind speed in m/s (hover to see current wind gust speed)